Location: Peebles
(55.6412°N, 3.1714°W)
Time: 23:06:16
(UTC+00:00)

FENGYUN 1C DEB - Pass Details

Date: 08 February 2023
Orbit: 707 x 862 km, 98.5° (Epoch: 07 November)

Event Time Altitude Azimuth Distance (km) Brightness Sun altitude
Rises 07:09:13 0° 24° (NNE) 3,378 ? -6.6°
Reaches altitude 10° 07:12:33 10° 46° (NE) 2,414 ? -6.1°
Maximum altitude 07:15:51 16° 84° (E) 1,972 ? -5.7°
Drops below altitude 10° 07:19:03 10° 122° (ESE) 2,347 ? -5.2°
Sets 07:22:13 0° 144° (SE) 3,239 ? -4.8°
